Dewpoint
53 54 54 56 56 55 55 55 54 54 54 55 56 57 57 57 57 57 57 57 57 57 58 58 58 57 48 43 44 49 54 54 53 53 48 47 44 44 42 41 44 43 41 39 40 40 37
53 53 53 53 54 55 54 54 54 54 54 55 56 56 56 56 56 56 57 56 56 56 57 58 57 55 44 38 47 49 50 51 51 50 48 46 44 45 43 41 41 44 43 42 36 36 33
52 53 53 54 53 54 54 54 53 54 54 55 56 56 56 56 55 56 56 56 55 56 57 56 57 46 42 41 46 47 48 50 49 50 47 49 48 45 43 40 44 43 40 37 35 31 33
53 53 53 53 54 54 54 54 54 54 54 55 56 56 56 56 55 55 55 55 55 55 54 56 56 45 39 46 46 46 46 49 49 50 50 50 49 46 43 44 43 40 39 28 30 31 37
53 53 53 54 54 54 55 55 55 54 54 55 55 56 55 56 55 55 56 55 56 54 53 54 43 42 38 48 44 46 46 46 49 49 50 48 48 45 44 39 37 39 29 26 28 33 37
52 53 53 54 54 55 55 54 55 55 54 54 54 55 55 55 55 56 56 55 53 49 46 43 41 36 38 39 44 45 46 47 46 47 46 45 44 40 39 35 27 25 26 25 26 29 36
52 53 53 54 54 54 54 55 54 54 54 53 54 54 55 54 55 55 50 42 31 37 38 36 35 37 39 41 45 44 46 46 44 41 38 40 32 29 29 30 27 25 23 23 26 30 34
52 53 53 54 54 54 54 54 54 54 54 54 53 54 55 54 54 53 48 37 37 38 34 38 38 37 39 41 38 40 44 40 39 36 37 32 31 32 32 30 27 26 22 22 27 30 29
52 52 53 54 54 54 54 54 54 54 54 54 54 54 55 54 53 45 41 42 45 44 35 33 37 35 34 39 37 36 39 40 37 34 34 30 29 34 29 28 26 25 22 24 24 27 31
51 52 53 53 54 54 54 54 54 54 55 55 54 54 54 54 45 42 42 45 45 44 26 24 31 34 36 38 33 38 37 37 34 33 35 33 33 32 29 28 27 24 25 27 26 26 24
51 52 52 53 53 54 54 54 54 55 55 55 54 54 53 53 43 43 45 45 45 36 10 23 30 36 36 34 32 31 38 35 31 29 30 27 30 29 28 29 28 26 28 28 29 27 26
51 51 51 52 53 53 54 54 54 55 54 54 54 53 52 44 44 45 45 44 42 24 7 25 31 30 29 31 30 31 34 35 33 31 30 30 33 32 32 33 33 27 23 25 28 25 20
50 51 51 52 53 54 54 55 55 54 54 54 54 53 49 45 42 45 44 42 27 17 24 25 28 30 30 26 26 28 29 29 28 21 24 27 30 32 33 32 29 24 23 20 21 19 17
50 51 52 53 53 54 54 54 54 54 54 54 54 51 48 45 45 46 43 27 12 20 27 32 31 31 26 26 24 28 29 27 29 28 24 22 19 28 31 29 27 27 25 20 14 17 17
50 52 53 54 54 54 53 54 54 54 53 53 52 47 45 46 46 45 33 24 23 27 31 31 29 24 22 25 25 26 28 27 29 29 23 21 20 29 31 29 29 23 24 25 24 23 17
51 53 53 54 54 53 53 53 54 53 53 53 44 44 44 44 45 41 31 29 29 32 33 32 26 25 20 21 23 22 25 28 29 31 31 27 18 26 28 30 30 26 27 24 27 19 20
52 53 53 54 54 54 54 53 53 53 54 51 45 40 45 46 44 34 27 27 32 33 34 32 28 26 23 20 22 24 26 29 31 31 31 26 24 22 25 24 24 26 24 23 25 25 21
53 53 53 54 53 53 54 53 53 53 53 46 43 29 44 45 34 33 28 31 35 33 34 33 31 28 23 22 20 22 24 27 32 32 29 27 24 21 21 28 29 28 24 22 21 18 18
53 53 54 54 53 53 53 53 53 53 52 41 34 36 44 40 25 28 31 32 33 32 31 30 28 28 27 23 19 20 22 33 32 30 22 25 23 19 19 24 29 23 24 24 22 22 14
53 54 54 54 53 53 53 53 52 53 53 44 34 32 31 35 33 30 29 28 29 33 32 29 28 28 26 23 22 18 21 31 32 31 36 29 21 22 18 17 23 22 25 24 22 19 11
53 54 54 54 53 53 53 53 52 52 53 42 35 33 29 25 27 30 29 29 27 28 32 30 28 26 24 22 22 19 23 26 31 35 30 20 14 18 16 17 16 19 21 25 20 20 16
53 54 54 54 54 54 53 52 51 51 52 39 30 29 34 30 31 30 31 27 28 28 28 27 27 27 26 24 23 22 25 24 24 28 29 26 19 22 20 18 17 15 17 17 19 24 22
54 54 54 54 54 54 53 52 51 51 49 40 41 39 30 29 29 29 27 27 28 29 30 30 28 27 27 28 30 31 31 29 29 29 27 26 23 23 18 25 24 17 21 20 17 18 23
54 54 54 54 54 54 53 52 50 51 48 42 41 40 34 24 30 27 28 28 28 30 29 31 30 28 31 33 32 33 31 30 30 30 29 27 24 24 21 22 10 16 21 23 20 18 22
54 54 54 55 54 54 53 53 50 50 50 43 43 41 36 27 29 26 28 28 30 32 29 31 32 33 34 30 27 25 26 24 27 28 29 29 27 23 21 21 19 21 20 18 21 18 21
54 55 54 55 54 54 54 53 51 50 51 45 43 43 40 29 26 28 28 30 27 28 29 30 34 35 33 31 28 21 20 21 22 26 29 29 28 24 24 20 14 16 20 21 20 15 20
55 55 55 54 53 53 53 53 53 52 51 47 45 44 42 36 37 32 28 29 31 30 28 30 32 31 33 29 26 24 22 21 17 20 25 26 25 24 23 22 23 24 20 22 18 15 22
50 50 51 51 51 50 50 50 50 50 51 48 45 45 42 38 39 38 35 32 32 31 27 30 29 30 30 27 27 26 24 24 22 22 24 24 23 24 24 22 18 23 22 19 20 27 23
47 47 47 47 47 47 47 46 47 47 48 50 46 45 45 41 40 42 39 38 35 34 34 33 30 32 31 28 29 28 26 26 24 20 26 21 23 22 24 24 26 24 22 23 27 26 26
Lifted_Index
11 10 10 9 9 9 9 10 10 10 10 9 9 9 9 9 9 8 8 7 7 5 4 2 2 2 3 3 2 1 0 0 0 1 1 1 1 0 -0 0 0 0 1 1 2 2 2
10 10 10 10 10 9 9 10 10 10 10 10 9 10 10 10 9 9 8 7 7 5 4 2 2 3 3 3 2 1 1 0 1 1 1 2 1 1 0 0 0 0 1 1 2 2 2
10 10 10 10 10 10 10 10 10 10 10 10 10 10 10 10 9 9 8 8 7 6 4 2 2 3 3 2 2 1 1 1 1 1 2 2 2 1 1 1 0 0 0 1 2 2 2
10 10 10 10 10 10 10 10 10 10 10 10 10 10 10 10 9 9 9 8 7 6 4 3 2 2 3 2 2 1 1 1 1 2 2 2 2 2 1 1 1 0 1 1 1 1 1
10 10 10 10 10 10 10 10 10 10 10 10 10 10 10 10 9 9 9 8 8 6 5 3 3 3 3 2 2 1 1 1 1 2 2 2 2 2 1 1 1 1 1 1 1 1 0
10 10 10 10 10 10 10 10 10 10 10 10 10 10 10 10 10 10 9 9 8 7 5 4 3 3 3 2 2 1 1 1 1 1 2 2 2 2 1 1 1 1 1 1 1 0 -0
11 10 10 10 10 10 10 10 10 10 10 11 11 10 10 10 10 10 10 10 9 7 6 4 3 3 3 2 2 2 1 1 1 2 2 1 2 2 1 1 1 1 1 1 0 -0 -0
10 10 10 10 10 10 10 10 10 10 10 10 11 10 10 10 10 10 10 10 9 8 6 5 4 3 3 2 2 2 2 2 2 2 2 1 1 2 2 2 1 1 1 1 0 -0 -0
10 10 10 10 10 10 10 10 10 10 10 10 10 10 10 10 11 11 11 11 10 8 7 6 4 3 3 2 2 2 2 2 2 2 2 2 1 1 1 2 2 1 1 1 0 -0 -0
10 10 10 10 10 10 10 10 10 10 10 10 10 10 10 11 11 10 11 11 10 8 7 6 5 4 3 3 2 2 2 2 2 2 2 1 1 1 1 1 1 1 1 0 0 0 0
10 10 10 10 10 10 10 10 9 9 9 10 10 10 11 11 11 10 10 11 10 7 5 5 5 4 4 3 3 2 2 2 2 2 2 2 1 1 1 0 0 0 0 0 0 0 0
10 10 10 10 10 9 9 9 9 9 9 9 10 10 11 11 11 11 11 10 8 6 5 5 5 5 4 4 3 2 2 2 1 2 2 2 1 1 1 0 -0 -0 0 0 0 0 0
10 10 10 10 9 9 9 9 8 8 9 9 10 10 11 11 11 11 10 8 6 5 5 6 5 5 5 5 4 3 2 2 1 1 1 1 1 1 1 1 0 -0 0 0 0 0 0
10 10 10 10 9 9 8 8 8 8 8 9 10 10 10 10 10 9 8 6 4 5 6 6 6 5 5 5 5 4 4 3 2 2 1 1 1 2 2 1 1 0 1 1 1 1 1
10 10 10 9 9 9 8 7 7 7 8 8 9 9 9 9 9 8 7 5 5 5 6 6 6 5 5 5 5 5 5 4 3 2 2 2 2 2 2 2 1 1 1 1 1 1 1
10 10 9 9 9 8 8 7 7 6 7 7 7 8 8 9 8 7 6 5 6 7 7 6 5 5 4 5 5 5 5 5 5 4 3 2 2 2 2 2 2 1 2 2 2 1 1
9 9 9 9 8 8 7 7 6 6 6 6 6 6 8 8 7 6 5 5 6 8 8 7 6 5 5 5 5 5 5 5 6 5 4 3 2 2 2 2 2 2 2 2 2 1 1
9 9 9 8 8 8 7 7 6 6 6 5 5 5 7 7 6 4 4 5 6 7 7 7 6 6 6 5 5 5 5 6 7 6 5 5 3 2 2 3 3 2 2 2 2 2 2
8 8 8 8 8 8 7 7 6 6 5 5 4 5 6 6 5 4 4 4 6 7 7 7 6 6 6 5 5 5 6 7 7 7 7 6 4 3 2 3 3 3 3 3 2 2 1
8 8 8 8 8 7 7 6 6 6 5 5 4 4 5 5 5 4 4 4 5 6 7 7 7 6 6 5 5 5 6 7 8 8 8 7 5 3 3 3 4 4 3 4 3 2 2
8 7 7 7 7 7 7 6 6 6 5 5 4 4 4 4 4 4 4 4 4 5 6 6 6 6 5 5 5 5 5 6 7 7 7 6 5 4 4 4 4 4 4 4 3 3 3
7 7 7 7 7 7 6 6 6 6 5 5 4 4 4 4 4 4 4 4 4 5 6 6 6 6 6 5 5 5 6 6 6 7 7 6 5 4 4 4 4 3 4 4 4 4 4
6 6 6 6 6 6 6 5 5 5 5 5 5 5 4 4 4 4 4 4 4 5 6 6 6 6 6 7 7 7 7 7 6 6 6 5 5 4 3 3 3 3 4 4 5 5 5
5 5 5 5 5 5 5 5 5 5 5 5 5 5 4 4 4 4 4 4 5 5 6 7 7 7 8 8 8 7 7 6 6 6 6 6 5 4 4 3 3 4 5 5 5 5 6
4 4 4 4 5 5 5 5 5 5 5 5 5 5 5 4 4 4 5 5 5 6 6 7 8 9 9 8 7 5 5 5 5 6 6 7 6 5 4 3 3 4 6 6 6 6 6
4 4 4 4 4 5 5 5 5 5 5 5 5 6 5 5 4 5 5 6 6 6 6 7 8 9 8 7 5 4 3 4 4 5 6 6 6 5 4 4 4 5 6 7 6 6 7
4 4 3 4 4 4 4 4 4 5 5 5 5 6 6 5 5 5 6 6 6 6 6 7 7 7 7 6 4 4 4 4 4 4 5 5 5 5 5 4 4 6 7 7 7 7 8
6 5 4 4 4 4 4 4 4 4 5 5 5 6 6 6 6 6 6 6 6 6 6 6 6 6 6 5 5 4 4 4 4 4 4 4 4 4 4 4 5 6 7 7 8 8 9
8 7 5 5 4 4 4 4 4 4 5 5 5 6 6 6 6 6 6 6 6 6 5 6 6 6 6 5 5 5 5 5 4 4 4 4 4 4 4 4 5 7 7 8 9 9 9